This is the latest recevied weather packets stored in our database for station/object KD9DOE. If no packets are shown the sender has not sent any weather packets the latest 10 day(s).
| Time | Temp. | Humidity | Pressure | Rain* | Wind** | Luminosity | Snow |
|---|---|---|---|---|---|---|---|
| 1777748541 | 13.33° C | 31% | 1016.9 hPa | 0 mm | - | 301 W/m² | - |
| 1777748241 | 13.33° C | 31% | 1017 hPa | 0 mm | - | 192 W/m² | - |
| 1777747938 | 13.89° C | 30% | 1017.3 hPa | 0 mm | - | 211 W/m² | - |
| 1777747634 | 14.44° C | 29% | 1017.3 hPa | 0 mm | - | 250 W/m² | - |
| 1777747330 | 13.89° C | 31% | 1017.4 hPa | 0 mm | - | 822 W/m² | - |
| 1777747027 | 13.89° C | 32% | 1017.4 hPa | 0 mm | - | 310 W/m² | - |
| 1777746723 | 13.89° C | 32% | 1017.6 hPa | 0 mm | - | 310 W/m² | - |
| 1777746418 | 13.89° C | 32% | 1017.5 hPa | 0 mm | - | 556 W/m² | - |
| 1777746113 | 12.78° C | 33% | 1017.6 hPa | 0 mm | - | 434 W/m² | - |
| 1777745811 | 12.78° C | 34% | 1017.6 hPa | 0 mm | - | 227 W/m² | - |
| 1777745510 | 12.78° C | 33% | 1017.7 hPa | 0 mm | - | 189 W/m² | - |
| 1777745207 | 13.33° C | 32% | 1017.7 hPa | 0 mm | - | 222 W/m² | - |
| 1777744904 | 13.33° C | 33% | 1017.6 hPa | 0 mm | - | 268 W/m² | - |
| 1777744603 | 13.33° C | 30% | 1017.8 hPa | 0 mm | - | 316 W/m² | - |
| 1777744299 | 13.33° C | 31% | 1017.7 hPa | 0 mm | - | 259 W/m² | - |
| 1777743996 | 13.33° C | 32% | 1017.9 hPa | 0 mm | - | 273 W/m² | - |
| 1777743692 | 13.33° C | 32% | 1017.8 hPa | 0 mm | - | 156 W/m² | - |
| 1777743390 | 13.33° C | 29% | 1018 hPa | 0 mm | - | 242 W/m² | - |
| 1777743088 | 13.33° C | 29% | 1018.1 hPa | 0 mm | - | 355 W/m² | - |
| 1777742785 | 12.78° C | 32% | 1017.9 hPa | 0 mm | - | 235 W/m² | - |
| 1777742481 | 12.78° C | 32% | 1018.2 hPa | 0 mm | - | 205 W/m² | - |
| 1777742177 | 13.89° C | 30% | 1018.2 hPa | 0 mm | - | 194 W/m² | - |
| 1777741874 | 13.33° C | 29% | 1018.1 hPa | 0 mm | - | 255 W/m² | - |
| 1777741571 | 13.33° C | 30% | 1018.2 hPa | 0 mm | - | 801 W/m² | - |
| 1777741268 | 13.33° C | 33% | 1018.3 hPa | 0 mm | - | 794 W/m² | - |
* Rain latest hour (hover to see other rain measurements)
** Current wind speed in m/s (hover to see current wind gust speed)